TimeEST,TemperatureF,Dew PointF,Humidity,Sea Level PressureIn,VisibilityMPH,Wind Direction,Wind SpeedMPH,Gust SpeedMPH,PrecipitationIn,Events,Conditions,WindDirDegrees,DateUTC
12:15 AM,28.4,21.2,74,30.15,10.0,WSW,5.8,-,N/A,,Clear,250,2012-11-29 05:15:00
12:35 AM,28.4,21.2,74,30.15,10.0,West,8.1,-,N/A,,Clear,270,2012-11-29 05:35:00
12:55 AM,28.4,21.2,74,30.16,10.0,West,9.2,-,N/A,,Clear,270,2012-11-29 05:55:00
1:15 AM,28.4,21.2,74,30.16,10.0,West,5.8,-,N/A,,Clear,260,2012-11-29 06:15:00
1:35 AM,28.4,21.2,74,30.16,10.0,West,6.9,-,N/A,,Clear,280,2012-11-29 06:35:00
1:55 AM,28.4,21.2,74,30.16,10.0,West,5.8,-,N/A,,Clear,260,2012-11-29 06:55:00
2:15 AM,28.4,21.2,74,30.17,10.0,West,9.2,-,N/A,,Clear,280,2012-11-29 07:15:00
2:35 AM,30.2,21.2,69,30.18,10.0,West,11.5,17.3,N/A,,Clear,270,2012-11-29 07:35:00
2:55 AM,30.2,21.2,69,30.18,10.0,West,10.4,-,N/A,,Clear,280,2012-11-29 07:55:00
3:15 AM,28.4,21.2,74,30.18,10.0,West,8.1,-,N/A,,Clear,280,2012-11-29 08:15:00
3:35 AM,28.4,21.2,74,30.18,10.0,West,8.1,-,N/A,,Clear,280,2012-11-29 08:35:00
3:55 AM,28.4,21.2,74,30.18,10.0,West,6.9,-,N/A,,Clear,270,2012-11-29 08:55:00
4:15 AM,28.4,21.2,74,30.19,10.0,West,10.4,-,N/A,,Clear,280,2012-11-29 09:15:00
4:35 AM,28.4,21.2,74,30.19,10.0,West,9.2,-,N/A,,Clear,270,2012-11-29 09:35:00
4:55 AM,28.4,21.2,74,30.20,10.0,West,8.1,-,N/A,,Clear,270,2012-11-29 09:55:00
5:15 AM,28.4,21.2,74,30.20,10.0,West,8.1,-,N/A,,Clear,270,2012-11-29 10:15:00
5:35 AM,28.4,21.2,74,30.20,10.0,West,10.4,-,N/A,,Clear,280,2012-11-29 10:35:00
5:55 AM,28.4,21.2,74,30.20,10.0,West,8.1,-,N/A,,Clear,270,2012-11-29 10:55:00
6:15 AM,28.4,21.2,74,30.20,10.0,West,9.2,-,N/A,,Clear,280,2012-11-29 11:15:00
6:35 AM,28.4,21.2,74,30.20,10.0,West,6.9,-,N/A,,Clear,260,2012-11-29 11:35:00
6:55 AM,28.4,21.2,74,30.21,10.0,West,6.9,-,N/A,,Clear,260,2012-11-29 11:55:00
7:15 AM,28.4,21.2,74,30.22,10.0,West,9.2,-,N/A,,Clear,280,2012-11-29 12:15:00
7:35 AM,28.4,21.2,74,30.23,10.0,WSW,6.9,-,N/A,,Clear,250,2012-11-29 12:35:00
7:55 AM,28.4,21.2,74,30.24,10.0,West,6.9,-,N/A,,Clear,270,2012-11-29 12:55:00
8:15 AM,30.2,21.2,69,30.24,10.0,West,5.8,-,N/A,,Clear,280,2012-11-29 13:15:00
8:35 AM,30.2,23.0,75,30.24,10.0,West,6.9,-,N/A,,Clear,270,2012-11-29 13:35:00
8:55 AM,33.8,23.0,65,30.25,10.0,West,8.1,-,N/A,,Clear,260,2012-11-29 13:55:00
9:15 AM,33.8,24.8,70,30.25,10.0,WSW,4.6,-,N/A,,Clear,240,2012-11-29 14:15:00
9:35 AM,35.6,26.6,70,30.26,10.0,West,9.2,-,N/A,,Clear,260,2012-11-29 14:35:00
9:55 AM,35.6,24.8,65,30.26,10.0,West,8.1,-,N/A,,Clear,280,2012-11-29 14:55:00
10:15 AM,37.4,24.8,60,30.25,10.0,West,5.8,-,N/A,,Clear,270,2012-11-29 15:15:00
10:35 AM,37.4,24.8,60,30.25,10.0,WNW,9.2,-,N/A,,Clear,290,2012-11-29 15:35:00
10:55 AM,37.4,24.8,60,30.24,10.0,West,11.5,-,N/A,,Partly Cloudy,270,2012-11-29 15:55:00
11:15 AM,37.4,24.8,60,30.24,10.0,West,10.4,17.3,N/A,,Partly Cloudy,270,2012-11-29 16:15:00
11:35 AM,39.2,24.8,56,30.23,10.0,West,13.8,-,N/A,,Scattered Clouds,270,2012-11-29 16:35:00
11:55 AM,37.4,24.8,60,30.22,10.0,West,11.5,16.1,N/A,,Scattered Clouds,260,2012-11-29 16:55:00
12:15 PM,39.2,24.8,56,30.21,10.0,WSW,10.4,16.1,N/A,,Partly Cloudy,240,2012-11-29 17:15:00
12:35 PM,39.2,24.8,56,30.20,10.0,West,11.5,-,N/A,,Clear,260,2012-11-29 17:35:00
12:55 PM,39.2,23.0,52,30.20,10.0,WSW,9.2,16.1,N/A,,Clear,240,2012-11-29 17:55:00
2:35 PM,39.2,19.4,45,30.17,10.0,SSW,6.9,-,N/A,,Clear,210,2012-11-29 19:35:00
2:55 PM,39.2,19.4,45,30.18,10.0,WSW,3.5,17.3,N/A,,Clear,240,2012-11-29 19:55:00
3:15 PM,39.2,19.4,45,30.17,10.0,SW,6.9,16.1,N/A,,Clear,230,2012-11-29 20:15:00
3:35 PM,39.2,19.4,45,30.17,10.0,SW,8.1,-,N/A,,Clear,230,2012-11-29 20:35:00
3:55 PM,37.4,19.4,48,30.17,10.0,SW,6.9,16.1,N/A,,Clear,230,2012-11-29 20:55:00
4:15 PM,37.4,19.4,48,30.17,10.0,WSW,5.8,-,N/A,,Clear,250,2012-11-29 21:15:00
4:35 PM,37.4,19.4,48,30.17,10.0,WSW,6.9,-,N/A,,Clear,240,2012-11-29 21:35:00
4:55 PM,35.6,19.4,52,30.18,10.0,WSW,4.6,-,N/A,,Clear,240,2012-11-29 21:55:00
5:15 PM,35.6,19.4,52,30.19,10.0,SW,4.6,-,N/A,,Clear,230,2012-11-29 22:15:00
5:35 PM,35.6,19.4,52,30.19,10.0,SW,4.6,-,N/A,,Clear,220,2012-11-29 22:35:00
5:55 PM,33.8,19.4,56,30.19,10.0,SW,4.6,-,N/A,,Clear,220,2012-11-29 22:55:00
6:15 PM,33.8,21.2,60,30.19,10.0,SSW,4.6,-,N/A,,Clear,210,2012-11-29 23:15:00
6:35 PM,33.8,21.2,60,30.19,10.0,SW,6.9,-,N/A,,Clear,220,2012-11-29 23:35:00
6:55 PM,35.6,23.0,60,30.20,10.0,SW,5.8,-,N/A,,Clear,220,2012-11-29 23:55:00
7:15 PM,35.6,23.0,60,30.20,10.0,SW,5.8,-,N/A,,Clear,220,2012-11-30 00:15:00
7:35 PM,35.6,21.2,56,30.20,10.0,SSW,6.9,-,N/A,,Clear,210,2012-11-30 00:35:00
7:55 PM,35.6,21.2,56,30.20,10.0,SW,5.8,-,N/A,,Clear,220,2012-11-30 00:55:00
8:15 PM,35.6,21.2,56,30.21,10.0,SW,5.8,-,N/A,,Clear,230,2012-11-30 01:15:00
8:35 PM,35.6,21.2,56,30.21,10.0,SW,5.8,-,N/A,,Clear,220,2012-11-30 01:35:00
8:55 PM,35.6,21.2,56,30.21,10.0,SSW,4.6,-,N/A,,Clear,210,2012-11-30 01:55:00
9:15 PM,35.6,21.2,56,30.21,10.0,SW,8.1,-,N/A,,Clear,230,2012-11-30 02:15:00
9:35 PM,35.6,21.2,56,30.21,10.0,SW,6.9,-,N/A,,Clear,230,2012-11-30 02:35:00
9:55 PM,35.6,21.2,56,30.20,10.0,WSW,6.9,-,N/A,,Clear,240,2012-11-30 02:55:00
10:15 PM,35.6,21.2,56,30.20,10.0,SW,6.9,-,N/A,,Clear,230,2012-11-30 03:15:00
10:35 PM,35.6,21.2,56,30.20,10.0,WSW,10.4,-,N/A,,Clear,240,2012-11-30 03:35:00
10:55 PM,35.6,21.2,56,30.21,10.0,WSW,8.1,-,N/A,,Clear,240,2012-11-30 03:55:00
11:15 PM,35.6,21.2,56,30.21,10.0,SW,8.1,-,N/A,,Clear,230,2012-11-30 04:15:00
11:35 PM,35.6,21.2,56,30.21,10.0,WSW,6.9,-,N/A,,Clear,240,2012-11-30 04:35:00
11:55 PM,35.6,21.2,56,30.22,10.0,WSW,5.8,-,N/A,,Mostly Cloudy,240,2012-11-30 04:55:00